Homestead AFB, FL

8:42 PM EDT on June 22, 2017 (GMT -0400)
Dade County-Homestead Regional

Weather History for KHST - June, 2014

Change the Weather History Date:

Tuesday, June 17, 2014

  Actual Average Record
Temperature  
Mean Temperature 78 °F -  
Max Temperature 83 °F 88 °F 97 °F (1981)
Min Temperature 75 °F 71 °F 62 °F (1936)
Cooling Degree Days 14    
Growing Degree Days 28 (Base 50)    
Moisture  
Dew Point 64 °F    
Average Humidity 60    
Maximum Humidity 66    
Minimum Humidity 51    
Precipitation  
Precipitation 0.04 in - - ()
Sea Level Pressure  
Sea Level Pressure 30.10 in    
Wind  
Wind Speed 8 mph (ENE)    
Max Wind Speed 17 mph    
Max Gust Speed 28 mph    
Visibility 10 miles    
Events Rain , Thunderstorm    
Averages and records for this station are not official NWS values.
T = Trace of Precipitation, MM = Missing Value Source: NWS Daily Summary

Daily Weather History Graph

Daily Weather History Graph

Search for Another Location

Airport or City:

Trip Planner

Search our weather history database for the weather conditions in past years. The results will help you decide how hot, cold, wet, or windy it might be!

Date:

Astronomy

Jun. 17, 2014 Rise Set
Actual Time 6:30 AM EDT 8:14 PM EDT
Civil Twilight 6:04 AM EDT 8:40 PM EDT
Nautical Twilight 5:33 AM EDT 9:11 PM EDT
Astronomical Twilight 5:00 AM EDT 9:44 PM EDT
Moon No Moon Rise 11:17 AM EDT (6/17)
Length of Visible Light 14h 35m
Length of Day
13h 43m
Waning Gibbous, 73% of the Moon is Illuminated
Jun 17
Waning Gibbous
Jun 19
Last Quarter
Jun 27
New
Jul 5
First Quarter
Jul 12
Full

Hourly Weather History & Observations

Time (EDT) Temp. Heat Index Dew Point Humidity Pressure Visibility Wind Dir Wind Speed Gust Speed Precip Events Conditions
12:58 AM 80.8 °F 83.1 °F 66.6 °F 62% 30.11 in 10.0 mi East 8.1 mph - N/A   Partly Cloudy
1:58 AM 79.7 °F - 64.6 °F 60% 30.09 in 10.0 mi ESE 6.9 mph - N/A   Clear
2:55 AM 80.6 °F 82.7 °F 66.2 °F 61% 30.06 in 10.0 mi ENE 5.8 mph - N/A Rain Light Rain
2:58 AM 80.6 °F 82.7 °F 66.2 °F 61% 30.07 in 10.0 mi ENE 6.9 mph - 0.00 in Rain Light Rain
3:08 AM 80.6 °F 82.7 °F 66.2 °F 61% 30.06 in 10.0 mi ENE 11.5 mph - N/A   Partly Cloudy
3:11 AM 80.6 °F 82.7 °F 66.2 °F 61% 30.06 in 8.0 mi ENE 12.7 mph 17.3 mph N/A Rain Light Rain
3:31 AM 77.0 °F - 64.4 °F 65% 30.06 in 10.0 mi ESE 5.8 mph - N/A Rain Light Rain
3:35 AM 77.0 °F - 64.4 °F 65% 30.06 in 10.0 mi ESE 5.8 mph - N/A   Partly Cloudy
3:58 AM 75.4 °F - 62.6 °F 64% 30.07 in 10.0 mi WSW 1.2 mph - 0.03 in   Clear
4:58 AM 76.6 °F - 60.4 °F 57% 30.07 in 10.0 mi East 4.6 mph - N/A   Clear
5:58 AM 76.8 °F - 61.2 °F 58% 30.08 in 10.0 mi East 3.5 mph - N/A   Partly Cloudy
6:58 AM 77.7 °F - 61.0 °F 56% 30.10 in 10.0 mi East 2.3 mph - N/A   Partly Cloudy
7:58 AM 80.2 °F 81.5 °F 62.6 °F 55% 30.10 in 10.0 mi ENE 2.3 mph - N/A   Clear
8:26 AM 80.6 °F 81.8 °F 62.6 °F 54% 30.10 in 10.0 mi ENE 5.8 mph - N/A Thunderstorm Light Drizzle
8:32 AM 82.4 °F 83.4 °F 62.6 °F 51% 30.10 in 10.0 mi ENE 5.8 mph - N/A   Scattered Clouds
8:58 AM 81.0 °F 81.9 °F 62.1 °F 52% 30.12 in 10.0 mi East 10.4 mph - 0.00 in   Scattered Clouds
9:33 AM 77.0 °F - 62.6 °F 61% 30.13 in 10.0 mi NE 10.4 mph - N/A Rain , Thunderstorm Light Rain
9:45 AM 77.0 °F - 60.8 °F 57% 30.14 in 10.0 mi ENE 8.1 mph - N/A Thunderstorm Scattered Clouds
9:46 AM 77.0 °F - 60.8 °F 57% 30.14 in 10.0 mi ENE 8.1 mph - N/A Rain , Thunderstorm Light Thunderstorms and Rain
9:50 AM 77.0 °F - 60.8 °F 57% 30.13 in 10.0 mi NE 5.8 mph - N/A Thunderstorm Scattered Clouds
9:58 AM 78.3 °F - 60.3 °F 54% 30.14 in 10.0 mi Variable 4.6 mph - 0.00 in Thunderstorm Partly Cloudy
10:58 AM 82.0 °F 84.1 °F 66.0 °F 58% 30.14 in 10.0 mi ENE 12.7 mph - N/A   Partly Cloudy
11:58 AM 80.8 °F 82.9 °F 66.2 °F 61% 30.14 in 10.0 mi ENE 12.7 mph 18.4 mph N/A   Partly Cloudy
12:58 PM 81.7 °F 83.6 °F 65.8 °F 58% 30.14 in 10.0 mi ENE 13.8 mph - N/A   Mostly Cloudy
1:58 PM 80.4 °F 82.8 °F 67.1 °F 64% 30.12 in 10.0 mi ENE 15.0 mph - N/A   Partly Cloudy
2:58 PM 80.2 °F 82.2 °F 65.5 °F 61% 30.10 in 10.0 mi ENE 8.1 mph - N/A   Partly Cloudy
3:58 PM 81.9 °F 83.9 °F 65.8 °F 58% 30.10 in 10.0 mi ENE 12.7 mph - N/A   Clear
4:58 PM 82.9 °F 86.0 °F 68.4 °F 61% 30.09 in 10.0 mi NE 15.0 mph - N/A   Clear
5:58 PM 80.4 °F 83.1 °F 68.2 °F 66% 30.09 in 10.0 mi NE 17.3 mph - N/A   Clear
6:58 PM 79.5 °F - 66.7 °F 65% 30.09 in 10.0 mi NE 12.7 mph - N/A   Clear
7:58 PM 79.7 °F - 66.4 °F 64% 30.09 in 10.0 mi ENE 9.2 mph - N/A   Partly Cloudy
8:47 PM 80.6 °F 82.7 °F 66.2 °F 61% 30.09 in 10.0 mi East 12.7 mph - N/A Rain Light Rain
8:53 PM 78.8 °F - 66.2 °F 65% 30.09 in 9.0 mi East 9.2 mph - N/A Rain , Thunderstorm Light Rain
8:58 PM 78.8 °F - 66.6 °F 66% 30.10 in 9.0 mi East 9.2 mph - 0.01 in Rain , Thunderstorm Light Rain
9:02 PM 78.8 °F - 64.4 °F 61% 30.10 in 10.0 mi East 12.7 mph - N/A Rain , Thunderstorm Light Thunderstorms and Rain
9:06 PM 78.8 °F - 66.2 °F 65% 30.10 in 10.0 mi ESE 10.4 mph - N/A Thunderstorm Thunderstorm
9:30 PM 78.8 °F - 64.4 °F 61% 30.09 in 10.0 mi East 9.2 mph - N/A Thunderstorm Mostly Cloudy
9:58 PM 77.7 °F - 63.7 °F 62% 30.10 in 10.0 mi East 16.1 mph 27.6 mph 0.00 in Thunderstorm Clear
10:58 PM 77.5 °F - 62.2 °F 59% 30.12 in 10.0 mi East 15.0 mph 20.7 mph N/A   Clear
11:58 PM 77.4 °F - 61.7 °F 58% 30.11 in 10.0 mi East 11.5 mph - N/A   Clear